Вернуться в каталог

NINGXIA-1 8

АктивенНаукаLEO
NORAD 49020·PAYLOAD·🇨🇳 China

Запущен Jul 9, 2021 с Taiyuan Satellite Launch Center

Loading…

Ближайшие Пролёты (ближайшие 24 часа)

TLE

СвежийSource: Space-Track

Эпоха: Sep 14, 2026, 14:48 UTC

1 49020U 21064C   26257.61698220 -.00000187  00000-0 -31869-4 0  9993
2 49020  44.9940 181.9768 0008758 312.0856  47.9235 14.08546214266830

Отслеживайте NINGXIA-1 8 в реальном времени с AllMySat

Download on the App Store